EW7614 Weather Reports


time (UTC)temp
C
wind
direction
speed
KPH
gust
KPH
rain 1hr
cm
rain 24hr
cm
rain mn
cm
humidity
%
barometer
mb
20260506111509 20 360 1.6 20.9 0.00 0.00 0.00 45 1001.8
20260506110047 20 67 4.8 19.3 0.00 0.00 0.00 40 1001.8
20260506104617 20 236 0.0 14.5 0.00 0.00 0.00 40 1001.9
20260506103024 20 109 1.6 11.3 0.00 0.00 0.00 43 1002.1
20260506101510 19 323 1.6 4.8 0.00 0.00 0.00 42 1002.4
20260506100115 18 299 1.6 11.3 0.00 0.00 0.00 50 1002.6
20260506094531 18 266 4.8 12.9 0.00 0.00 0.00 51 1002.8
20260506093105 16 267 0.0 3.2 0.00 0.00 0.00 58 1003.3
20260506091502 15 257 0.0 3.2 0.00 0.00 0.00 59 1003.5
20260506090029 15 305 1.6 3.2 0.00 0.00 0.00 62 1003.3
20260506084603 15 238 0.0 4.8 0.00 0.00 0.00 64 1003.5
20260506083001 14 215 0.0 3.2 0.00 0.00 0.00 62 1003.6
20260506081537 13 213 0.0 4.8 0.00 0.00 0.00 61 1003.7
20260506080111 13 205 0.0 0.0 0.00 0.00 0.00 69 1003.9
20260506073027 12 307 0.0 4.8 0.00 0.00 0.00 71 1004.4
20260506071614 11 293 1.6 4.8 0.00 0.00 0.00 69 1004.6
20260506061533 8 315 1.6 4.8 0.00 0.00 0.00 82 1005.4
20260506060121 7 302 0.0 0.0 0.00 0.00 0.00 85 1005.5
20260506050111 4 239 0.0 0.0 0.00 0.00 0.00 90 1006.2
20260506044535 4 221 0.0 1.6 0.00 0.00 0.00 91 1006.2
20260506043109 3 55 0.0 1.6 0.00 0.00 0.00 93 1006.5
20260506041516 2 266 0.0 1.6 0.00 0.00 0.00 92 1006.6
20260506040046 3 256 0.0 0.0 0.00 0.00 0.00 90 1006.2
20260506034503 4 86 0.0 1.6 0.00 0.00 0.00 90 1006.0
20260506033101 3 47 0.0 0.0 0.00 0.00 0.00 92 1006.1
20260506031506 3 47 0.0 1.6 0.00 0.00 0.00 93 1006.5
20260506030059 2 272 0.0 0.0 0.00 0.00 0.00 92 1007.0
20260506024515 4 172 0.0 0.0 0.00 0.00 0.00 91 1006.8
20260506023105 3 207 0.0 0.0 0.00 0.00 0.00 91 1006.9
20260506021522 3 206 0.0 0.0 0.00 0.00 0.00 90 1006.8
20260506020114 3 202 0.0 0.0 0.00 0.00 0.00 89 1007.0
20260506014534 4 202 0.0 0.0 0.00 0.00 0.00 88 1006.7
20260506013116 4 202 0.0 0.0 0.00 0.00 0.00 90 1006.6
20260506011544 4 202 0.0 0.0 0.00 0.00 0.00 87 1006.8
20260506010121 4 202 0.0 1.6 0.00 0.00 0.00 88 1006.4
20260506004540 5 71 0.0 1.6 0.00 0.00 0.00 86 1006.3
20260506003123 4 208 0.0 3.2 0.00 0.00 0.00 85 1006.3
20260506001541 6 146 0.0 0.0 0.00 0.00 0.00 84 1006.3
20260506000130 5 269 0.0 3.2 0.00 0.00 0.00 84 1006.3
20260505234542 6 104 0.0 1.6 0.00 0.00 0.00 82 1006.2
20260505233132 6 163 0.0 0.0 0.00 0.00 0.00 80 1006.2
20260505231552 7 65 0.0 0.0 0.00 0.00 0.00 80 1006.2
20260505230136 6 209 0.0 0.0 0.00 0.00 0.00 81 1006.2
20260505224544 8 176 0.0 0.0 0.00 0.00 0.00 76 1006.0
20260505223136 8 178 0.0 0.0 0.00 0.00 0.00 75 1006.0
20260505221600 8 67 0.0 3.2 0.00 0.00 0.00 74 1005.8
20260505220002 8 247 0.0 1.6 0.00 0.00 0.00 74 1005.7
20260505214558 8 198 0.0 1.6 0.00 0.00 0.00 72 1005.7
20260505213009 8 233 0.0 0.0 0.00 0.00 0.00 74 1005.8
20260505211559 9 234 0.0 1.6 0.00 0.00 0.00 71 1005.7
20260505210014 10 32 0.0 3.2 0.00 0.00 0.00 70 1005.5
20260505204612 10 205 0.0 0.0 0.00 0.00 0.00 68 1005.5
20260505203022 10 313 0.0 0.0 0.00 0.00 0.00 66 1005.2
20260505201606 11 344 0.0 1.6 0.00 0.00 0.00 64 1005.0
20260505200018 12 290 4.8 9.7 0.00 0.00 0.00 58 1004.8
20260505194608 14 192 1.6 20.9 0.00 0.00 0.00 52 1004.6
20260505193031 15 77 1.6 8.0 0.00 0.00 0.00 51 1004.3
20260505191611 15 16 6.4 20.9 0.00 0.00 0.00 50 1004.3
20260505190020 15 119 0.0 12.9 0.00 0.00 0.00 50 1004.0
20260505184608 16 80 1.6 12.9 0.00 0.00 0.00 47 1003.9
20260505183021 16 59 6.4 22.5 0.00 0.00 0.00 47 1003.7
20260505181617 16 86 3.2 25.7 0.00 0.00 0.00 47 1003.5
20260505180019 16 274 3.2 24.1 0.00 0.00 0.00 46 1003.4
20260505174610 16 52 6.4 24.1 0.00 0.00 0.00 46 1003.3
20260505173029 17 349 8.0 22.5 0.00 0.00 0.00 44 1003.3
20260505171612 17 70 1.6 22.5 0.00 0.00 0.00 46 1003.3
20260505170032 17 333 6.4 20.9 0.00 0.00 0.00 44 1003.2
20260505164618 17 58 4.8 27.4 0.00 0.00 0.00 45 1003.2
20260505163036 17 82 11.3 32.2 0.00 0.00 0.00 45 1003.2
20260505161506 17 340 8.0 25.7 0.00 0.00 0.00 45 1003.5
20260505153055 18 172 4.8 24.1 0.00 0.00 0.00 44 1003.4
20260505151634 18 101 6.4 29.0 0.00 0.00 0.00 43 1003.4
20260505124606 20 331 9.7 46.7 0.00 0.00 0.00 39 1003.1
20260505123125 20 63 11.3 33.8 0.00 0.00 0.00 39 1003.1
20260505121531 18 96 8.0 25.7 0.00 0.00 0.00 40 1003.0
20260505120116 18 83 1.6 24.1 0.00 0.00 0.00 42 1003.3
20260505114517 18 227 4.8 22.5 0.00 0.00 0.00 40 1003.4
20260505113114 19 88 3.2 32.2 0.00 0.00 0.00 40 1003.3